DateTimeUTC,F1_A11,F1_S11,BsB_S11,BsG_S11,BsR_S11,BbsB_S11,BbsG_S11,BbsR_S11,BaB_A11,BaG_A11,BaR_A11,Tu_S11,T_S11,Uu_S11,U_S11,P_S11,T1_A11
2021-09-08T19:00:00Z,00000200,21000000,,,,,,,0000.17,-000.57,-000.12,18.6,25.6,,00.0,0662.3,31.0
2021-09-08T19:01:00Z,00000200,21000000,,,,,,,-000.49,0000.49,-000.36,18.7,25.6,,00.0,0662.3,31.0
2021-09-08T19:02:00Z,00000200,21000000,,,,,,,-000.06,-000.19,0000.11,18.6,25.6,,00.0,0662.3,31.0
2021-09-08T19:03:00Z,00000200,61000000,,,,,,,0000.15,-000.03,0000.15,18.6,25.6,,00.0,0662.3,31.0
2021-09-08T19:04:00Z,00000200,41000000,0000.82,-000.05,-000.20,0000.64,0000.25,-000.28,-000.05,-000.04,0000.02,18.7,25.4,,00.0,0663.2,31.0
2021-09-08T19:05:00Z,00000200,01000000,0000.28,0000.39,0000.03,0000.69,-000.03,0000.19,0000.17,-000.08,-000.17,18.7,25.3,,00.0,0663.2,31.0
2021-09-08T19:06:00Z,00000200,01000000,-000.05,0000.16,0000.20,0000.13,-000.22,-000.51,0000.25,0000.19,0000.17,18.7,25.3,,00.0,0663.2,31.0
2021-09-08T19:07:00Z,00000200,01000000,0000.03,0000.05,-000.17,0000.51,0000.08,0000.08,-000.08,0000.07,-000.07,18.6,25.2,,00.0,0663.2,31.0
2021-09-08T19:08:00Z,00000200,01000000,0000.14,0000.13,0000.40,0000.35,-000.01,0000.22,-000.03,0000.13,0000.23,18.6,25.2,,00.0,0663.2,31.0
2021-09-08T19:09:00Z,00000200,01000000,0000.82,0000.28,0000.14,0000.53,0000.10,0000.17,-000.00,-000.32,-000.26,18.5,25.1,,00.0,0663.2,31.0
2021-09-08T19:10:00Z,00000200,01000000,-000.26,0000.34,0000.07,0000.30,0000.04,0000.20,-000.06,0000.36,0000.41,18.5,25.1,,00.0,0663.2,31.0
2021-09-08T19:11:00Z,00000200,01000000,0000.29,0000.07,-000.07,0000.49,0000.31,0000.06,0000.58,0000.06,0000.05,18.4,25.1,,00.0,0663.2,31.0
2021-09-08T19:12:00Z,00000200,01000000,0000.23,-000.10,0000.14,0000.74,-000.01,0000.16,0000.27,-000.03,0000.05,18.5,25.1,,00.0,0663.1,31.0
2021-09-08T19:13:00Z,00000200,01000000,0000.58,-000.07,0000.05,0000.04,0000.35,-000.14,-000.09,0000.10,0000.03,18.6,25.1,,00.0,0663.1,31.0
2021-09-08T19:14:00Z,00000200,01000000,0000.52,0000.21,-000.01,-000.21,0000.10,0000.31,-000.05,0000.17,0000.19,18.7,25.2,,00.0,0663.2,31.0
2021-09-08T19:15:00Z,00000200,01000000,-000.37,0000.23,-000.07,-000.04,0000.15,0000.07,0000.24,0000.44,0000.30,18.8,25.2,,00.0,0663.2,31.0
2021-09-08T19:16:00Z,00000200,01000000,0000.65,0000.04,0000.10,0000.16,-000.13,-000.01,-000.09,0000.05,-000.30,18.9,25.2,,00.0,0663.2,31.0
2021-09-08T19:17:00Z,00000200,01000000,0000.35,0000.10,0000.07,0000.26,0000.05,0000.39,-000.24,-000.37,0000.01,18.9,25.3,,00.0,0663.1,31.0
2021-09-08T19:18:00Z,00000200,01000000,0000.62,0000.27,0000.18,0000.61,0000.15,0000.15,0000.32,-000.03,0000.21,19.0,25.3,,00.0,0663.1,31.1
2021-09-08T19:19:00Z,00000200,01000000,0000.66,-000.01,-000.20,0000.15,0000.05,0000.23,-000.32,-000.14,-000.26,19.0,25.3,,00.0,0663.1,31.0
2021-09-08T19:20:00Z,00000200,01000000,0000.45,-000.15,0000.21,0000.72,-000.17,0000.44,0000.08,0000.32,-000.01,18.9,25.3,,00.0,0663.1,31.0
2021-09-08T19:21:00Z,00000200,01000000,0000.58,-000.05,0000.21,0000.41,-000.20,0000.11,-000.27,-000.62,-000.38,18.8,25.3,,00.0,0663.1,31.0
2021-09-08T19:22:00Z,00000200,01000000,0000.59,0000.08,-000.14,0000.31,-000.01,-000.11,0000.20,0000.29,0000.14,18.8,25.2,,00.0,0663.1,31.0
2021-09-08T19:23:00Z,00000200,01000000,0000.22,0000.10,0000.04,0000.35,0000.09,0000.64,0000.17,-000.06,0000.43,18.7,25.2,,00.0,0663.1,31.0
2021-09-08T19:24:00Z,00000200,01000000,-000.83,0000.02,0000.09,0000.27,-000.03,0000.16,-000.19,0000.26,-000.33,18.6,25.2,,00.0,0663.1,31.0
2021-09-08T19:25:00Z,00000200,01000000,0000.20,-000.19,-000.01,0000.57,0000.22,0000.10,0000.31,-000.07,0000.03,18.5,25.1,,00.0,0663.1,31.0
2021-09-08T19:26:00Z,00000200,01000000,0000.08,-000.52,0000.36,-000.00,-000.25,0000.07,-000.00,0000.10,0000.14,18.6,25.1,,00.0,0663.1,31.0
2021-09-08T19:27:00Z,00000200,01000000,0000.50,-000.01,-000.11,0000.29,-000.11,0000.11,0000.48,-000.04,0000.10,18.6,25.1,,00.0,0663.1,31.0
2021-09-08T19:28:00Z,00000200,01000000,0000.68,0000.06,-000.21,0000.30,-000.03,0000.35,-000.11,0000.54,0000.42,18.7,25.2,,00.0,0663.1,31.0
2021-09-08T19:29:00Z,00000200,01000000,0000.57,0000.12,0000.20,0000.82,-000.20,0000.09,-000.09,0000.20,-000.05,18.8,25.2,,00.0,0663.1,31.0
2021-09-08T19:30:00Z,00000200,01000000,0000.02,-000.15,0000.11,0000.49,0000.09,0000.19,0000.46,-000.32,0000.07,18.9,25.3,,00.0,0663.1,31.0
2021-09-08T19:31:00Z,00000200,01000000,-000.16,-000.04,0000.01,0000.80,0000.02,0000.16,-000.01,0000.28,0000.15,19.0,25.3,,00.0,0663.2,31.1
2021-09-08T19:32:00Z,00000200,01000000,0000.04,0000.02,-000.06,0000.56,-000.00,0000.02,-000.20,-000.29,-000.41,19.0,25.4,,00.0,0663.2,31.1
2021-09-08T19:33:00Z,00000200,01000000,0000.95,0000.21,0000.01,0000.19,0000.10,0000.38,-000.21,0000.13,0000.12,19.1,25.4,,00.0,0663.2,31.1
2021-09-08T19:34:00Z,00000200,01000000,0001.46,0000.09,-000.02,0000.02,0000.01,-000.24,-000.36,-000.20,-000.13,19.1,25.4,,00.0,0663.2,31.1
2021-09-08T19:35:00Z,00000200,01000000,0000.33,0000.01,0000.09,0000.38,-000.10,0000.06,0000.03,0000.13,0000.06,19.0,25.4,,00.0,0663.1,31.1
2021-09-08T19:36:00Z,00000200,01000000,-000.09,0000.01,-000.06,0000.35,0000.06,-000.23,0000.02,-000.25,-000.35,18.9,25.3,,00.0,0663.1,31.0
2021-09-08T19:37:00Z,00000200,01000000,-000.34,0000.25,-000.18,0000.04,0000.19,0000.11,0000.19,-000.04,0000.18,18.9,25.3,,00.0,0663.2,31.0
2021-09-08T19:38:00Z,00000200,01000000,0000.28,-000.05,0000.14,0000.20,-000.09,0000.09,-000.27,0000.09,-000.25,18.8,25.3,,00.0,0663.2,31.0
2021-09-08T19:39:00Z,00000200,01000000,0000.12,0000.10,-000.13,0000.76,0000.04,-000.23,0000.09,-000.32,0000.14,18.7,25.2,,00.0,0663.2,31.0
2021-09-08T19:40:00Z,00000200,01000000,0000.88,0000.23,0000.14,0000.68,0000.08,-000.01,-000.08,0000.01,0000.32,18.7,25.2,,00.0,0663.2,31.0
2021-09-08T19:41:00Z,00000200,01000000,0000.24,-000.18,0000.31,-000.03,-000.07,-000.06,0000.11,-000.11,-000.25,18.7,25.2,,00.0,0663.1,31.0
2021-09-08T19:42:00Z,00000200,01000000,-000.07,-000.09,-000.06,-000.37,0000.21,0000.22,0000.27,0000.55,0000.28,18.7,25.2,,00.0,0663.1,31.0
2021-09-08T19:43:00Z,00000200,01000000,0000.75,0000.29,0000.13,0000.58,0000.26,0000.22,0000.21,0000.19,0000.09,18.8,25.2,,00.0,0663.1,31.0
2021-09-08T19:44:00Z,00000200,01000000,-000.01,-000.05,0000.07,0000.36,0000.02,0000.15,0000.06,0000.14,0000.08,18.9,25.3,,00.0,0663.1,31.0
2021-09-08T19:45:00Z,00000200,01000000,0000.39,0000.12,0000.16,0000.52,0000.01,0000.12,-000.36,-000.41,-000.02,18.9,25.3,,00.0,0663.2,31.0
2021-09-08T19:46:00Z,00000200,01000000,0000.44,-000.00,0000.09,0000.54,-000.03,0000.36,0000.01,0000.04,0000.20,19.0,25.4,,00.0,0663.2,31.1
2021-09-08T19:47:00Z,00000200,01000000,0001.29,0000.20,0000.16,0000.39,0000.06,0000.10,0000.52,-000.03,-000.12,19.0,25.4,,00.0,0663.2,31.1
2021-09-08T19:48:00Z,00000200,01000000,0000.07,0000.05,-000.33,0000.38,0000.08,-000.06,-000.34,0000.22,-000.21,19.0,25.4,,00.0,0663.2,31.0
2021-09-08T19:49:00Z,00000200,01000000,0000.38,0000.14,0000.31,-000.22,-000.04,0000.05,-000.06,-000.10,0000.00,18.9,25.4,,00.0,0663.2,31.0
2021-09-08T19:50:00Z,00000200,01000000,0000.34,0000.24,0000.42,0000.78,0000.04,0000.01,-000.06,-000.03,-000.13,18.9,25.3,,00.0,0663.2,31.0
2021-09-08T19:51:00Z,00000200,01000000,0000.66,-000.15,-000.06,0000.47,-000.12,-000.05,0000.07,0000.24,0000.17,18.8,25.3,,00.0,0663.1,31.0
2021-09-08T19:52:00Z,00000200,01000000,0000.43,0000.24,0000.10,0000.56,-000.16,0000.12,-000.06,-000.45,-000.12,18.7,25.3,,00.0,0663.1,31.0
2021-09-08T19:53:00Z,00000200,01000000,0001.27,0000.54,0000.10,-000.43,0000.07,0000.30,-000.11,0000.08,0000.05,18.6,25.2,,00.0,0663.1,31.0
2021-09-08T19:54:00Z,00000200,01000000,0000.21,0000.19,0000.22,0000.49,-000.11,-000.03,-000.09,0000.09,-000.52,18.6,25.2,,00.0,0663.1,31.0
2021-09-08T19:55:00Z,00000200,01000000,0000.84,0000.06,0000.01,-000.46,0000.01,0000.33,0000.30,0000.16,0000.44,18.5,25.1,,00.0,0663.1,31.0
2021-09-08T19:56:00Z,00000200,01000000,0000.48,0000.10,0000.02,0000.19,-000.00,0000.04,0000.05,0000.20,0000.40,18.5,25.1,,00.0,0663.1,31.0
2021-09-08T19:57:00Z,00000200,41000000,,,,,,,0000.93,0000.31,0000.43,18.6,25.1,,00.0,0663.1,31.0
2021-09-08T19:58:00Z,00000200,61000000,,,,,,,-000.56,-000.25,-000.46,18.2,25.3,,00.0,0662.1,31.0
2021-09-08T19:59:00Z,00000200,21000000,,,,,,,-000.19,-000.22,-000.08,18.3,25.4,,00.0,0662.1,31.0
